Radiation Dose at Monitoring Post of Fukushima Daini Nuclear Power Station
Date,Time,MP-1(microSv/h),MP-2(microSv/h),MP-3(microSv/h),MP-4(microSv/h),MP-5(microSv/h),MP-6(microSv/h),MP-7(microSv/h),Wind Direction,Wind Velocity(m/s),Rain
2018/06/24,00:00,0.307,0.195,0.311,0.301,0.284,0.152,0.096,west,2.2,No
2018/06/24,00:10,0.310,0.195,0.312,0.298,0.285,0.153,0.094,west-northwest,0.6,No
2018/06/24,00:20,0.308,0.195,0.311,0.301,0.284,0.153,0.095,-,CALM,No
2018/06/24,00:30,0.310,0.195,0.311,0.299,0.286,0.153,0.095,-,CALM,No
2018/06/24,00:40,0.308,0.194,0.312,0.301,0.285,0.152,0.096,south-southeast,0.9,No
2018/06/24,00:50,0.309,0.196,0.312,0.300,0.287,0.154,0.095,-,CALM,No
2018/06/24,01:00,0.308,0.194,0.312,0.300,0.285,0.153,0.096,west-southwest,0.8,No
2018/06/24,01:10,0.309,0.195,0.312,0.300,0.284,0.154,0.095,west,3.3,No
2018/06/24,01:20,0.307,0.195,0.312,0.301,0.284,0.153,0.095,west,3.3,No
2018/06/24,01:30,0.310,0.195,0.313,0.300,0.286,0.154,0.096,west-southwest,1.8,No
2018/06/24,01:40,0.308,0.195,0.310,0.299,0.286,0.154,0.095,north-northeast,0.6,No
2018/06/24,01:50,0.309,0.193,0.313,0.300,0.286,0.154,0.096,northeast,1.1,No
2018/06/24,02:00,0.307,0.196,0.311,0.301,0.284,0.152,0.095,north-northeast,2.2,No
2018/06/24,02:10,0.310,0.195,0.313,0.299,0.286,0.153,0.096,north-northeast,1.6,No
2018/06/24,02:20,0.307,0.195,0.310,0.302,0.284,0.153,0.096,north-northeast,3.0,No
2018/06/24,02:30,0.310,0.195,0.313,0.299,0.287,0.153,0.096,north,3.2,No
2018/06/24,02:40,0.309,0.195,0.312,0.302,0.283,0.153,0.096,north,2.8,No
2018/06/24,02:50,0.310,0.194,0.313,0.299,0.286,0.153,0.095,north,1.8,No
2018/06/24,03:00,0.307,0.194,0.310,0.301,0.283,0.154,0.095,north,2.4,No
2018/06/24,03:10,0.310,0.195,0.312,0.299,0.286,0.153,0.095,north,2.2,No
2018/06/24,03:20,0.307,0.195,0.311,0.301,0.284,0.154,0.096,north,1.9,No
2018/06/24,03:30,0.309,0.194,0.313,0.299,0.285,0.153,0.096,northwest,1.5,No
2018/06/24,03:40,0.306,0.195,0.310,0.302,0.284,0.154,0.094,west-northwest,1.7,No
2018/06/24,03:50,0.310,0.196,0.312,0.300,0.287,0.153,0.095,west-northwest,2.5,No
2018/06/24,04:00,0.307,0.194,0.311,0.301,0.284,0.153,0.095,west-northwest,2.6,No
2018/06/24,04:10,0.309,0.195,0.309,0.300,0.286,0.153,0.094,west,3.9,No
2018/06/24,04:20,0.306,0.194,0.310,0.301,0.283,0.153,0.095,west-northwest,5.3,No
2018/06/24,04:30,0.309,0.195,0.309,0.298,0.286,0.153,0.095,west-northwest,5.2,No
2018/06/24,04:40,0.307,0.195,0.313,0.300,0.283,0.154,0.094,west,3.9,No
2018/06/24,04:50,0.308,0.194,0.310,0.298,0.287,0.153,0.096,west,3.9,No
2018/06/24,05:00,0.308,0.195,0.311,0.300,0.284,0.153,0.096,west,3.8,No
2018/06/24,05:10,0.308,0.195,0.311,0.301,0.286,0.154,0.095,west-southwest,3.5,No
2018/06/24,05:20,0.307,0.194,0.311,0.300,0.283,0.152,0.095,southwest,2.8,No
2018/06/24,05:30,0.307,0.193,0.310,0.301,0.285,0.153,0.095,southwest,3.1,No
2018/06/24,05:40,0.308,0.195,0.312,0.300,0.282,0.153,0.094,southwest,3.3,No
2018/06/24,05:50,0.307,0.193,0.311,0.300,0.281,0.152,0.095,southwest,3.2,No
2018/06/24,06:00,0.308,0.194,0.310,0.297,0.286,0.153,0.094,west-southwest,3.5,No
2018/06/24,06:10,0.307,0.196,0.311,0.299,0.283,0.153,0.094,west,2.8,No
2018/06/24,06:20,0.307,0.194,0.311,0.300,0.281,0.152,0.095,west,3.6,No
2018/06/24,06:30,0.308,0.194,0.310,0.298,0.285,0.153,0.095,west,3.3,No
2018/06/24,06:40,0.306,0.194,0.312,0.301,0.286,0.152,0.095,west,2.6,No
2018/06/24,06:50,0.309,0.194,0.309,0.296,0.282,0.153,0.095,north-northwest,1.8,No
2018/06/24,07:00,0.307,0.195,0.312,0.301,0.286,0.153,0.095,north,1.6,No
2018/06/24,07:10,0.309,0.193,0.308,0.299,0.286,0.152,0.095,north-northwest,2.0,No
2018/06/24,07:20,0.308,0.194,0.311,0.300,0.282,0.153,0.094,north-northwest,2.6,No
2018/06/24,07:30,0.307,0.194,0.310,0.300,0.286,0.152,0.095,north-northwest,4.4,No
2018/06/24,07:40,0.309,0.194,0.309,0.297,0.285,0.153,0.095,north-northwest,3.8,No
2018/06/24,07:50,0.306,0.195,0.311,0.301,0.281,0.154,0.096,northwest,2.0,No
2018/06/24,08:00,0.307,0.195,0.308,0.301,0.285,0.152,0.095,west,1.4,No
2018/06/24,08:10,0.309,0.193,0.313,0.297,0.286,0.153,0.095,-,CALM,No
2018/06/24,08:20,0.306,0.193,0.312,0.295,0.285,0.153,0.095,south,1.1,No
2018/06/24,08:30,0.308,0.193,0.308,0.300,0.283,0.152,0.094,south-southwest,2.0,No
2018/06/24,08:40,0.309,0.193,0.307,0.301,0.284,0.152,0.096,south-southwest,1.3,No
2018/06/24,08:50,0.308,0.192,0.307,0.301,0.282,0.153,0.096,south-southwest,1.3,No
2018/06/24,09:00,0.306,0.193,0.307,0.299,0.283,0.154,0.095,south,0.7,No
2018/06/24,09:10,0.304,0.194,0.311,0.299,0.283,0.153,0.095,south,1.4,No
2018/06/24,09:20,0.306,0.193,0.312,0.297,0.283,0.154,0.095,south-southwest,1.9,No
2018/06/24,09:30,0.310,0.195,0.310,0.298,0.283,0.152,0.095,south-southwest,1.6,No
2018/06/24,09:40,0.310,0.194,0.309,0.299,0.282,0.153,0.094,south-southwest,1.7,No
2018/06/24,09:50,0.307,0.194,0.308,0.298,0.284,0.152,0.095,south,2.1,No
2018/06/24,10:00,0.306,0.194,0.313,0.297,0.284,0.153,0.095,south,3.7,No
2018/06/24,10:10,0.305,0.194,0.313,0.298,0.285,0.153,0.095,south,2.9,No
2018/06/24,10:20,0.305,0.195,0.310,0.298,0.283,0.153,0.096,south,1.5,No
2018/06/24,10:30,0.304,0.195,0.309,0.299,0.285,0.153,0.095,south,4.0,No
2018/06/24,10:40,0.306,0.195,0.311,0.299,0.285,0.154,0.095,south,4.1,No
2018/06/24,10:50,0.306,0.195,0.310,0.300,0.285,0.154,0.095,south,3.4,No
2018/06/24,11:00,0.307,0.195,0.310,0.301,0.285,0.154,0.095,south,4.5,No
2018/06/24,11:10,0.306,0.195,0.310,0.300,0.285,0.155,0.095,south,5.0,No
2018/06/24,11:20,0.307,0.195,0.312,0.301,0.287,0.155,0.095,south-southeast,5.2,No
2018/06/24,11:30,0.307,0.196,0.311,0.301,0.287,0.155,0.096,south,6.1,No
2018/06/24,11:40,0.307,0.196,0.310,0.302,0.287,0.155,0.095,south,7.0,No
2018/06/24,11:50,0.309,0.195,0.313,0.302,0.285,0.154,0.095,south,7.5,No
2018/06/24,12:00,0.309,0.196,0.311,0.303,0.288,0.154,0.095,south,7.3,No
2018/06/24,12:10,0.309,0.196,0.312,0.302,0.286,0.155,0.095,south,8.2,No
2018/06/24,12:20,0.309,0.195,0.313,0.302,0.287,0.155,0.095,south,10.1,No
2018/06/24,12:30,0.309,0.195,0.312,0.303,0.286,0.154,0.094,south,10.0,No
2018/06/24,12:40,0.307,0.196,0.312,0.302,0.286,0.155,0.094,south,10.4,No
2018/06/24,12:50,0.307,0.195,0.312,0.302,0.286,0.155,0.094,south,9.3,No
2018/06/24,13:00,0.309,0.195,0.314,0.303,0.286,0.155,0.095,south,8.7,No
2018/06/24,13:10,0.309,0.195,0.313,0.303,0.287,0.154,0.096,south,8.4,No
2018/06/24,13:20,0.309,0.195,0.313,0.303,0.284,0.156,0.096,south,10.1,No
2018/06/24,13:30,0.308,0.196,0.312,0.303,0.287,0.154,0.095,south,9.8,No
2018/06/24,13:40,0.309,0.196,0.312,0.303,0.286,0.155,0.095,south,10.1,No
2018/06/24,13:50,0.309,0.198,0.313,0.303,0.287,0.156,0.095,south,10.0,No
2018/06/24,14:00,0.308,0.196,0.312,0.302,0.287,0.155,0.095,south,10.1,No
2018/06/24,14:10,0.308,0.196,0.313,0.303,0.286,0.154,0.094,south,10.9,No
2018/06/24,14:20,0.309,0.196,0.312,0.302,0.286,0.155,0.095,south,8.6,No
2018/06/24,14:30,0.310,0.196,0.311,0.300,0.286,0.154,0.096,south,8.8,No
2018/06/24,14:40,0.310,0.196,0.312,0.303,0.287,0.154,0.096,south,8.3,No
2018/06/24,14:50,0.310,0.196,0.313,0.301,0.287,0.154,0.096,south,5.1,No
2018/06/24,15:00,0.310,0.194,0.312,0.301,0.286,0.154,0.096,south,5.7,No
2018/06/24,15:10,0.310,0.195,0.314,0.301,0.285,0.154,0.095,south,8.1,No
2018/06/24,15:20,0.309,0.195,0.312,0.306,0.286,0.155,0.094,south,8.7,No
2018/06/24,15:30,0.309,0.195,0.312,0.303,0.286,0.155,0.095,south,9.8,No
2018/06/24,15:40,0.309,0.195,0.312,0.303,0.285,0.156,0.095,south,9.2,No
2018/06/24,15:50,0.307,0.196,0.311,0.302,0.286,0.154,0.095,south,10.6,No
2018/06/24,16:00,0.307,0.197,0.314,0.306,0.286,0.154,0.096,south,8.5,No
2018/06/24,16:10,0.310,0.197,0.316,0.304,0.285,0.153,0.096,south,10.9,No
2018/06/24,16:20,0.312,0.194,0.314,0.301,0.287,0.154,0.096,south,10.1,No
2018/06/24,16:30,0.311,0.197,0.313,0.305,0.290,0.155,0.095,south,9.5,No
2018/06/24,16:40,0.308,0.197,0.314,0.305,0.290,0.154,0.095,south,8.3,No
2018/06/24,16:50,0.308,0.197,0.316,0.302,0.287,0.154,0.095,south,9.0,No
2018/06/24,17:00,0.307,0.195,0.314,0.303,0.286,0.154,0.096,south,8.1,No
2018/06/24,17:10,0.308,0.196,0.312,0.305,0.287,0.155,0.095,south,7.3,No
2018/06/24,17:20,0.306,0.197,0.316,0.304,0.285,0.154,0.096,south,8.5,No
2018/06/24,17:30,0.312,0.196,0.316,0.302,0.284,0.153,0.096,south,9.3,No
2018/06/24,17:40,0.313,0.197,0.312,0.304,0.288,0.153,0.095,south,10.0,No
2018/06/24,17:50,0.311,0.197,0.316,0.304,0.291,0.156,0.096,south,9.8,No
2018/06/24,18:00,0.307,0.195,0.315,0.301,0.288,0.153,0.096,south-southwest,10.0,No
2018/06/24,18:10,0.312,0.198,0.313,0.307,0.285,0.154,0.095,south-southwest,9.2,No
2018/06/24,18:20,0.312,0.196,0.314,0.302,0.286,0.155,0.095,south-southwest,8.3,No
2018/06/24,18:30,0.310,0.194,0.316,0.302,0.291,0.154,0.096,south-southwest,7.6,No
2018/06/24,18:40,0.309,0.196,0.313,0.306,0.287,0.154,0.096,south-southwest,8.1,No
2018/06/24,18:50,0.312,0.197,0.315,0.303,0.288,0.154,0.096,south-southwest,7.2,No
2018/06/24,19:00,0.311,0.196,0.316,0.304,0.292,0.154,0.096,south-southwest,6.2,No
2018/06/24,19:10,0.308,0.197,0.313,0.307,0.287,0.154,0.096,south-southwest,5.5,No
2018/06/24,19:20,0.313,0.195,0.318,0.302,0.288,0.155,0.095,south-southwest,3.9,No
2018/06/24,19:30,0.311,0.198,0.315,0.304,0.289,0.154,0.096,west-southwest,2.4,No
2018/06/24,19:40,0.311,0.196,0.314,0.305,0.286,0.155,0.095,west-southwest,2.5,No
2018/06/24,19:50,0.313,0.197,0.317,0.302,0.288,0.155,0.095,west,2.7,No
2018/06/24,20:00,0.310,0.197,0.314,0.306,0.289,0.154,0.096,west-southwest,1.9,No
2018/06/24,20:10,0.311,0.197,0.316,0.305,0.286,0.155,0.096,west-northwest,1.7,No
2018/06/24,20:20,0.311,0.197,0.315,0.303,0.290,0.155,0.096,northwest,2.3,No
2018/06/24,20:30,0.310,0.197,0.314,0.306,0.287,0.156,0.095,northwest,2.6,No
2018/06/24,20:40,0.313,0.196,0.317,0.302,0.289,0.154,0.096,west-northwest,3.0,No
2018/06/24,20:50,0.309,0.197,0.313,0.306,0.288,0.155,0.096,north-northwest,3.6,No
2018/06/24,21:00,0.313,0.198,0.316,0.304,0.287,0.153,0.096,northwest,3.7,No
2018/06/24,21:10,0.311,0.196,0.315,0.304,0.289,0.155,0.095,west,1.2,No
2018/06/24,21:20,0.312,0.199,0.315,0.304,0.287,0.154,0.096,northwest,0.9,No
2018/06/24,21:30,0.312,0.196,0.317,0.302,0.288,0.155,0.096,west-southwest,1.2,No
2018/06/24,21:40,0.309,0.198,0.313,0.307,0.289,0.155,0.095,west-northwest,3.2,No
2018/06/24,21:50,0.313,0.195,0.316,0.303,0.287,0.155,0.096,northwest,2.2,No
2018/06/24,22:00,0.311,0.198,0.314,0.304,0.288,0.155,0.096,west,2.7,No
2018/06/24,22:10,0.313,0.196,0.316,0.303,0.287,0.155,0.096,northwest,3.6,No
2018/06/24,22:20,0.311,0.197,0.316,0.304,0.287,0.155,0.095,west-northwest,1.7,No
2018/06/24,22:30,0.311,0.196,0.315,0.305,0.289,0.155,0.096,northeast,1.0,No
2018/06/24,22:40,0.312,0.197,0.316,0.303,0.286,0.154,0.097,south-southwest,2.4,No
2018/06/24,22:50,0.310,0.197,0.314,0.305,0.290,0.154,0.096,west-southwest,2.7,No
2018/06/24,23:00,0.313,0.197,0.316,0.304,0.287,0.155,0.095,west,1.9,No
2018/06/24,23:10,0.310,0.197,0.315,0.303,0.287,0.154,0.096,west-southwest,1.1,No
2018/06/24,23:20,0.313,0.197,0.317,0.304,0.289,0.155,0.095,west-northwest,3.9,No
2018/06/24,23:30,0.311,0.197,0.314,0.303,0.285,0.155,0.095,west-southwest,2.8,No
2018/06/24,23:40,0.312,0.198,0.315,0.306,0.288,0.155,0.096,south-southwest,2.9,No
2018/06/24,23:50,0.312,0.198,0.316,0.302,0.288,0.154,0.096,southwest,1.2,No
